Date String (YYYY-MM-DD hh:mm:ss) UTC,Instrument flags,Ambient pressure (hPa),Sample flow (lpm),Bypass flow (lpm),Sample temperature (°C),Ambient temperature (°C),ASC tube jacket temperature (°C),LED temperature (°C),Box temperature (°C),Sample RH (%),Span deviation,Mass concentration (μg/m³),Mass concentration (μg/m³),Mass concentration (μg/m³)
DateTimeUTC,F1_M11,P_M11,Q1_M11,Q2_M11,T1_M11,T2_M11,T3_M11,T4_M11,T5_M11,U1_M11,ZSPAN_M11,X0_M11,X2_M11,X1_M11
2022-04-07 01:00:00,,0830.4,5.00,0.00,22.2,21.5,00.0,31.1,24.1,04.7,0000.0,0003.56,0000.94,0000.47
2022-04-07 01:01:00,,0830.4,5.01,0.00,22.2,21.5,00.0,31.1,24.1,04.6,0000.0,0003.55,0000.97,0000.48
2022-04-07 01:02:00,,0830.4,4.98,0.00,22.2,21.5,00.0,31.1,24.0,04.6,0000.0,0003.52,0000.99,0000.49
2022-04-07 01:03:00,,0830.4,5.01,0.00,22.2,21.5,00.0,31.1,24.1,04.8,0000.0,0003.21,0000.96,0000.48
2022-04-07 01:04:00,,0830.4,5.00,0.00,22.2,21.5,00.0,31.1,24.1,04.8,0000.0,0003.08,0000.95,0000.49
2022-04-07 01:05:00,,0830.3,5.01,0.00,22.2,21.5,00.0,31.1,24.1,04.8,0000.0,0003.17,0000.96,0000.49
2022-04-07 01:06:00,,0830.4,4.98,0.00,22.2,21.5,00.0,31.1,24.1,04.7,0000.0,0003.07,0000.94,0000.49
2022-04-07 01:07:00,,0830.4,5.00,0.00,22.2,21.5,00.0,31.1,24.1,04.8,0000.0,0002.68,0000.93,0000.49
2022-04-07 01:08:00,,0830.3,5.01,0.00,22.3,21.5,00.0,31.1,24.1,04.8,0000.0,0002.26,0000.90,0000.48
2022-04-07 01:09:00,,0830.4,5.00,0.00,22.3,21.5,00.0,31.1,24.1,04.8,0000.0,0002.34,0000.94,0000.49
2022-04-07 01:10:00,,0830.4,5.01,0.00,22.3,21.5,00.0,31.2,24.1,04.8,0000.0,0002.48,0000.99,0000.49
2022-04-07 01:11:00,,0830.5,4.98,0.00,22.3,21.5,00.0,31.2,24.1,04.8,0000.0,0002.46,0000.99,0000.50
2022-04-07 01:12:00,,0830.5,5.00,0.00,22.3,21.5,00.0,31.2,24.1,04.8,0000.0,0002.36,0001.00,0000.49
2022-04-07 01:13:00,,0830.5,5.01,0.00,22.3,21.5,00.0,31.2,24.1,04.8,0000.0,0002.22,0000.97,0000.49
2022-04-07 01:14:00,,0830.5,5.01,0.00,22.3,21.5,00.0,31.2,24.1,04.8,0000.0,0002.10,0000.97,0000.50
2022-04-07 01:15:00,,0830.4,5.00,0.00,22.3,21.5,00.0,31.2,24.1,04.8,0000.0,0002.01,0000.95,0000.49
2022-04-07 01:16:00,,0830.5,4.99,0.00,22.3,21.5,00.0,31.2,24.1,04.8,0000.0,0002.44,0000.96,0000.49
2022-04-07 01:17:00,,0830.5,5.00,0.00,22.2,21.5,00.0,31.2,24.1,04.8,0000.0,0002.60,0001.01,0000.49
2022-04-07 01:18:00,,0830.4,5.01,0.00,22.2,21.5,00.0,31.2,24.1,04.9,0000.0,0003.30,0001.07,0000.49
2022-04-07 01:19:00,,0830.4,5.00,0.00,22.2,21.5,00.0,31.2,24.1,04.9,0000.0,0003.46,0001.10,0000.49
2022-04-07 01:20:00,,0830.4,4.98,0.00,22.3,21.5,00.0,31.2,24.1,05.0,0000.0,0003.46,0001.09,0000.49
2022-04-07 01:21:00,,0830.4,5.01,0.00,22.3,21.5,00.0,31.2,24.1,05.0,0000.0,0003.38,0001.08,0000.49
2022-04-07 01:22:00,,0830.5,5.00,0.00,22.2,21.5,00.0,31.2,24.1,05.0,0000.0,0003.49,0001.12,0000.49
2022-04-07 01:23:00,,0830.3,5.00,0.00,22.2,21.5,00.0,31.2,24.1,05.0,0000.0,0003.55,0001.13,0000.49
2022-04-07 01:24:00,,0830.4,5.00,0.00,22.2,21.5,00.0,31.2,24.1,05.1,0000.0,0003.67,0001.17,0000.49
2022-04-07 01:25:00,,0830.6,5.01,0.00,22.2,21.5,00.0,31.2,24.1,05.1,0000.0,0004.30,0001.30,0000.50
2022-04-07 01:26:00,,0830.4,4.98,0.00,22.2,21.5,00.0,31.2,24.1,05.1,0000.0,0004.83,0001.37,0000.51
2022-04-07 01:27:00,,0830.4,5.00,0.00,22.2,21.5,00.0,31.2,24.1,05.2,0000.0,0004.49,0001.41,0000.51
2022-04-07 01:28:00,,0830.4,5.00,0.00,22.2,21.5,00.0,31.2,24.1,05.2,0000.0,0004.41,0001.40,0000.51
2022-04-07 01:29:00,,0830.4,5.01,0.00,22.2,21.5,00.0,31.2,24.1,05.2,0000.0,0003.84,0001.38,0000.51
2022-04-07 01:30:00,,0830.5,4.98,0.00,22.2,21.5,00.0,31.2,24.1,05.2,0000.0,0004.03,0001.39,0000.51
2022-04-07 01:31:00,,0830.6,5.00,0.00,22.2,21.5,00.0,31.2,24.1,05.3,0000.0,0005.26,0001.42,0000.51
2022-04-07 01:32:00,,0830.6,5.01,0.00,22.3,21.5,00.0,31.2,24.1,05.3,0000.0,0005.35,0001.42,0000.50
2022-04-07 01:33:00,,0830.6,5.00,0.00,22.3,21.5,00.0,31.2,24.1,05.3,0000.0,0005.69,0001.47,0000.51
2022-04-07 01:34:00,,0830.5,4.99,0.00,22.3,21.5,00.0,31.2,24.1,05.3,0000.0,0005.81,0001.50,0000.51
2022-04-07 01:35:00,,0830.5,5.00,0.00,22.3,21.5,00.0,31.2,24.1,05.4,0000.0,0006.20,0001.49,0000.52
2022-04-07 01:36:00,,0830.6,5.01,0.00,22.3,21.5,00.0,31.2,24.1,05.5,0000.0,0006.93,0001.43,0000.53
2022-04-07 01:37:00,,0830.6,5.02,0.00,22.3,21.5,00.0,31.2,24.1,05.6,0000.0,0006.66,0001.44,0000.54
2022-04-07 01:38:00,,0830.6,4.98,0.00,22.3,21.5,00.0,31.2,24.1,05.6,0000.0,0006.59,0001.39,0000.54
2022-04-07 01:39:00,,0830.5,5.00,0.00,22.3,21.5,00.0,31.2,24.1,05.7,0000.0,0007.58,0001.41,0000.55
2022-04-07 01:40:00,,0830.5,5.00,0.00,22.3,21.5,00.0,31.2,24.1,05.7,0000.0,0008.24,0001.42,0000.55
2022-04-07 01:41:00,,0830.6,5.01,0.00,22.3,21.5,00.0,31.2,24.1,05.8,0000.0,0008.21,0001.42,0000.55
2022-04-07 01:42:00,,0830.5,5.00,0.00,22.3,21.5,00.0,31.2,24.1,05.8,0000.0,0007.72,0001.40,0000.56
2022-04-07 01:43:00,,0830.5,5.00,0.00,22.3,21.5,00.0,31.2,24.1,05.9,0000.0,0007.50,0001.41,0000.57
2022-04-07 01:44:00,,0830.6,4.98,0.00,22.3,21.5,00.0,31.2,24.1,05.9,0000.0,0007.39,0001.39,0000.57
2022-04-07 01:45:00,,0830.6,5.00,0.00,22.3,21.5,00.0,31.2,24.1,05.9,0000.0,0007.08,0001.29,0000.57
2022-04-07 01:46:00,,0830.6,5.00,0.00,22.3,21.5,00.0,31.2,24.1,06.0,0000.0,0007.14,0001.30,0000.57
2022-04-07 01:47:00,,0830.6,5.00,0.00,22.3,21.5,00.0,31.2,24.1,06.0,0000.0,0006.49,0001.30,0000.55
2022-04-07 01:48:00,,0830.6,5.01,0.00,22.3,21.5,00.0,31.2,24.1,06.0,0000.0,0005.86,0001.30,0000.54
2022-04-07 01:49:00,,0830.6,5.01,0.00,22.3,21.5,00.0,31.2,24.1,06.0,0000.0,0005.88,0001.26,0000.54
2022-04-07 01:50:00,,0830.6,4.99,0.00,22.3,21.5,00.0,31.2,24.1,06.0,0000.0,0004.93,0001.28,0000.53
2022-04-07 01:51:00,,0830.5,5.00,0.00,22.3,21.5,00.0,31.2,24.1,05.9,0000.0,0003.79,0001.29,0000.54
2022-04-07 01:52:00,,0830.6,4.99,0.00,22.3,21.5,00.0,31.2,24.1,06.0,0000.0,0004.05,0001.36,0000.55
2022-04-07 01:53:00,,0830.6,5.01,0.00,22.2,21.5,00.0,31.2,24.1,06.0,0000.0,0004.69,0001.39,0000.55
2022-04-07 01:54:00,,0830.6,5.00,0.00,22.2,21.4,00.0,31.2,24.1,06.0,0000.0,0004.62,0001.41,0000.54
2022-04-07 01:55:00,,0830.6,5.01,0.00,22.2,21.4,00.0,31.2,24.0,05.9,0000.0,0004.52,0001.39,0000.54
2022-04-07 01:56:00,,0830.6,5.00,0.00,22.2,21.4,00.0,31.2,24.0,05.8,0000.0,0004.48,0001.37,0000.55
2022-04-07 01:57:00,,0830.6,5.00,0.00,22.2,21.4,00.0,31.2,24.0,05.8,0000.0,0004.37,0001.33,0000.55
2022-04-07 01:58:00,,0830.7,4.98,0.00,22.2,21.4,00.0,31.2,24.0,05.8,0000.0,0004.18,0001.33,0000.56
2022-04-07 01:59:00,,0830.7,5.01,0.00,22.2,21.4,00.0,31.2,24.0,05.7,0000.0,0004.09,0001.34,0000.57
